Regional Weather Roundup
Issued by NWS

Home | Current Version | Previous Version | Text Only | Print | Product List | Glossary On
Versions: 1 2 3 4 5 6 7 8 9 10 11 12 13 14 15 16 17 18 19 20 21 22 23 24 25 26 27 28 29 30 31 32 33 34 35 36 37 38 39 40 41 42 43 44 45 46 47 48 49 50
000
ASUS43 KDTX 022310
RWRMI
MICHIGAN HOURLY REGIONAL WEATHER ROUNDUP
NATIONAL WEATHER SERVICE DETROIT/PONTIAC MI
600 PM EST MON MAR 02 2015

NOTE: "FAIR" INDICATES FEW OR NO CLOUDS BELOW 12,000 FEET WITH NO
SIGNIFICANT WEATHER AND/OR OBSTRUCTION TO VISIBILITY.

MIZ047>049-052>055-059>063-066>070-074>076-081>083-030000-
SOUTHEAST LOWER MICHIGAN

CITY           SKY/WX    TMP DP  RH WIND       PRES   REMARKS
ADRIAN         PTCLDY    27  12  53 W7        30.42F WCI  19
ALMA           CLEAR     27  10  47 W5        30.39S WCI  22
ANN ARBOR      PTCLDY    28  11  48 W7        30.40F WCI  21
BAD AXE        CLEAR     25  11  57 SW5       30.40S WCI  19
CARO           CLEAR     26  11  52 SW3       30.39F
DETROIT CITY   CLEAR     32   9  38 NW6       30.41F WCI  26
DETROIT        MOCLDY    30  10  43 W6        30.42F WCI  24
FLINT          CLEAR     28  11  48 NW6       30.40F WCI  22
GROSSE ILE     CLEAR     28  14  54 SW7       30.40F WCI  21
HILLSDALE      PTCLDY    26  12  54 W5        30.39S WCI  21
HOWELL         CLEAR     26  11  53 SW5       30.39S WCI  21

CITY           SKY/WX    TMP DP  RH WIND       PRES   REMARKS
JACKSON        PTCLDY    27  13  55 W9        30.39F WCI  18
LAMBERTVILLE   PTCLDY    30  14  51 SW3       30.43F
LANSING        CLEAR     26  12  55 W8        30.40F WCI  18
LAPEER         FAIR      27   9  47 W7        30.40S WCI  19
MASON          CLEAR     28  13  52 W5        30.39F WCI  23
MONROE         CLEAR     27  16  63 SW6       30.41F WCI  20
MT. CLEMENS    PTCLDY    28  10  47 NW5       30.39F WCI  23
PONTIAC        PTCLDY    27  11  51 W8        30.38F WCI  19
PORT HOPE        N/A     25   9  50 SW7       30.38R WCI  17
PORT HURON     FAIR      27   9  46 W3        30.42S
TRI CITIES     CLEAR     27  11  51 SW9       30.40F WCI  18
TROY           CLEAR     32   8  36 W7        30.42F WCI  25
SAGINAW HB     CLEAR     28  14  54 SW7       30.40F WCI  21
$$
MIZ043>046-050>051-056>058-064>065-071>073-077>080-030000-
SOUTHWEST LOWER MICHIGAN

CITY           SKY/WX    TMP DP  RH WIND       PRES   REMARKS
BATTLE CREEK   PTCLDY    28  13  53 NW7       30.39F WCI  21
BENTON HARBOR  PTCLDY    24  16  71 CALM      30.42F
BIG RAPIDS     CLEAR     28   8  43 W5        30.36F WCI  22
COLDWATER      PTCLDY    25  12  59 CALM      30.40F
FREMONT        FAIR      24   8  50 W3        30.39F
HOLLAND        PTCLDY    25  14  63 W5        30.42F WCI  19
GRAND RAPIDS   MOCLDY    24  12  60 W7        30.40F WCI  16
IONIA          FAIR      26  15  61 SW8       30.39S WCI  18
KALAMAZOO      PTCLDY    27  13  55 W3        30.40F
LUDINGTON      CLEAR     23  11  61 W3        30.41F
MARSHALL       PTCLDY    27  13  56 SW5       30.39F WCI  21
MOUNT PLEASANT CLEAR     29  10  44 SW6       30.38S WCI  22
MUSKEGON       MOCLDY    24  12  60 SW6       30.42F WCI  17
SOUTH HAVEN    PTCLDY    26  16  65 NW3       30.42F
$$
MIZ016>042-030000-
NORTHERN LOWER MICHIGAN

CITY           SKY/WX    TMP DP  RH WIND       PRES   REMARKS
ALPENA         CLEAR     26   3  37 VRB3      30.37R
BEAVER ISLAND  CLEAR     21   7  53 SW8       30.36F WCI  11
BELLAIRE       CLEAR     23   6  48 CALM      30.40F
CADILLAC       CLEAR     24   6  45 W6        30.33R WCI  17
CHARLEVOIX     CLEAR     20   7  57 CALM      30.41F
FRANKFORT      CLEAR     22  12  64 SW6       30.39F WCI  15
GAYLORD        CLEAR     20   0  41 W7        30.33F WCI  11
GRAYLING       CLEAR     22   1  40 NW7       30.35S WCI  14
HARBOR SPRINGS CLEAR     19   7  58 W5        30.39S WCI  13
HOUGHTON LAKE  CLEAR     25   2  37 W6        30.35S WCI  18
MANISTEE       CLEAR     21   9  58 W7        30.40F WCI  13
OSCODA         CLEAR     27   4  38 NW5       30.36F WCI  22
PELLSTON       CLEAR     21   5  50 SW9       30.38F WCI  11
ROGERS CITY    CLEAR     24   8  50 W8        30.38S WCI  15
TRAVERSE CITY  PTCLDY    23   6  48 N3        30.38F
$$
MIZ007>008-015-030000-
EASTERN UPPER MICHIGAN

CITY           SKY/WX    TMP DP  RH WIND       PRES   REMARKS
KINROSS        CLEAR     16   9  73 N10       30.34F WCI   3
MACKINAC ISLAN CLEAR     19   9  67 SW9G17    30.35S WCI   7
NEWBERRY       CLEAR     20   1  43 CALM      30.33F
S. S. MARIE    CLEAR     16   5  62 NW6       30.35F WCI   7
MUNISING         N/A     16   6  65 NW3       30.31F
$$
MIZ004>006-011>014-085-030000-
CENTRAL UPPER MICHIGAN

CITY           SKY/WX    TMP DP  RH WIND       PRES   REMARKS
MANISTIQUE     CLEAR     23  11  60 S9        30.33F WCI  13
ESCANABA       CLEAR     25  10  54 S9G16     30.35S WCI  15
MENOMINEE      CLEAR     25   9  50 SW14      30.33F WCI  13
SAWYER-GWINN   CLEAR     21   9  58 NE7       30.26F WCI  13
$$
MIZ001>003-009>011-084-030000-
WESTERN UPPER MICHIGAN

CITY           SKY/WX    TMP DP  RH WIND       PRES   REMARKS
IRON MOUNTAIN  CLEAR     28   2  32 S6        30.25F WCI  22
HOUGHTON       CLEAR     20   8  60 W8        30.23F WCI  10
COPPER HARBOR    N/A     20  11  68 N3        30.26F
IRONWOOD       CLEAR     28   1  31 S10       30.19F WCI  19
$$

ABBREVIATIONS USED IN REMARKS
   TC - TEMPERATURE IN CELSIUS
  WCI - WIND CHILL INDEX
   HX - HEAT INDEX
  VSB - VISIBILITY




USA.gov is the U.S. government's official web portal to all federal, state and local government web resources and services.